FW2522 Weather Reports


time (UTC)temp
C
wind
direction
speed
KPH
gust
KPH
rain 1hr
cm
rain 24hr
cm
rain mn
cm
humidity
%
barometer
mb
20260508164516 18 360 3.2 12.9 0.00 0.00 0.00 32 1018.0
20260508163017 18 360 3.2 16.1 0.00 0.00 0.00 33 1018.1
20260508161528 17 360 4.8 12.9 0.00 0.00 0.00 33 1018.3
20260508160013 18 360 4.8 8.0 0.00 0.00 0.00 34 1018.6
20260508154511 17 360 1.6 9.7 0.00 0.00 0.00 38 1018.8
20260508153017 17 360 6.4 14.5 0.00 0.03 0.00 36 1018.9
20260508151512 17 360 1.6 16.1 0.00 0.03 0.00 37 1018.9
20260508150041 17 360 3.2 9.7 0.00 0.03 0.00 38 1018.9
20260508144540 17 360 4.8 16.1 0.00 0.03 0.00 41 1019.0
20260508143010 16 360 4.8 14.5 0.00 0.13 0.00 42 1019.0
20260508141510 16 360 1.6 8.0 0.00 0.13 0.00 41 1019.1
20260508140008 16 360 3.2 14.5 0.00 0.13 0.00 43 1019.3
20260508134510 15 360 4.8 12.9 0.00 0.13 0.00 43 1019.0
20260508133005 15 360 4.8 14.5 0.00 0.18 0.00 31 1019.1
20260508131505 14 360 4.8 8.0 0.00 0.18 0.00 34 1019.1
20260508130003 13 360 6.4 12.9 0.00 0.18 0.00 35 1018.9
20260508124600 13 360 4.8 12.9 0.00 0.18 0.00 38 1018.8
20260508123058 12 360 4.8 9.7 0.00 0.36 0.00 42 1018.6
20260508121556 11 360 1.6 4.8 0.00 0.36 0.00 46 1018.4
20260508120111 11 360 1.6 4.8 0.00 0.36 0.00 47 1018.3
20260508114559 10 360 0.0 1.6 0.00 0.36 0.00 47 1018.1
20260508113050 9 360 0.0 3.2 0.00 0.46 0.00 50 1017.6
20260508111545 8 360 0.0 3.2 0.00 0.46 0.00 50 1017.3
20260508110045 7 360 0.0 1.6 0.00 0.46 0.00 50 1017.1
20260508104539 7 360 0.0 1.6 0.00 0.46 0.00 48 1016.9
20260508103045 7 360 0.0 0.0 0.00 0.48 0.00 48 1016.6
20260508101536 7 360 0.0 1.6 0.00 0.48 0.00 48 1016.3
20260508100053 7 360 0.0 1.6 0.00 0.48 0.00 47 1016.1
20260508094531 7 360 0.0 3.2 0.00 0.48 0.00 46 1016.1
20260508093035 7 360 0.0 0.0 0.00 0.48 0.00 46 1016.0
20260508091528 7 360 0.0 0.0 0.00 0.48 0.00 45 1015.8
20260508090027 7 360 0.0 0.0 0.00 0.48 0.00 44 1015.8
20260508084523 8 360 0.0 0.0 0.00 0.48 0.00 43 1015.7
20260508083021 8 360 0.0 0.0 0.00 0.51 0.00 42 1015.6
20260508081518 8 360 0.0 0.0 0.00 0.51 0.00 43 1015.5
20260508080016 8 360 0.0 0.0 0.00 0.51 0.00 45 1015.4
20260508074514 8 360 0.0 0.0 0.00 0.51 0.00 49 1015.3
20260508073010 9 360 0.0 0.0 0.00 0.64 0.00 52 1015.2
20260508071540 9 360 0.0 0.0 0.00 0.64 0.00 53 1015.2
20260508070036 9 360 0.0 0.0 0.00 0.64 0.00 56 1014.9
20260508064536 10 360 0.0 0.0 0.00 0.64 0.00 58 1014.8
20260508063033 10 360 0.0 0.0 0.00 0.76 0.00 57 1014.7
20260508061529 10 360 0.0 0.0 0.00 0.76 0.00 58 1014.7
20260508060030 10 360 0.0 3.2 0.00 0.76 0.00 58 1014.9
20260508054603 10 360 0.0 0.0 0.00 0.76 0.00 58 1014.9
20260508053031 10 360 0.0 0.0 0.00 1.22 0.00 58 1014.8
20260508051521 11 360 0.0 0.0 0.00 1.22 0.00 58 1014.7
20260508050019 11 360 0.0 0.0 0.00 1.22 0.00 57 1014.5
20260508044547 11 360 0.0 0.0 0.00 1.22 0.00 56 1014.5
20260508043049 12 360 1.6 4.8 0.00 1.22 0.00 54 1014.4
20260508041543 12 360 0.0 3.2 0.00 1.22 0.00 53 1014.3
20260508040037 13 360 0.0 0.0 0.00 1.22 0.00 52 1014.3
20260508034543 13 360 0.0 1.6 0.00 1.22 0.00 51 1014.2
20260508033035 13 360 3.2 4.8 0.00 1.32 0.00 50 1014.2
20260508031534 13 360 0.0 4.8 0.00 1.32 0.00 50 1014.0
20260508030028 13 360 0.0 4.8 0.00 1.32 0.00 50 1014.2
20260508024527 13 360 3.2 6.4 0.00 1.32 0.00 48 1013.7
20260508023024 14 360 3.2 6.4 0.00 1.37 0.00 49 1013.6
20260508021555 14 360 1.6 4.8 0.00 1.37 0.00 49 1013.5
20260508014545 15 360 4.8 8.0 0.00 1.37 0.00 50 1012.9
20260508013041 15 360 3.2 6.4 0.00 1.80 0.00 52 1012.5
20260508011540 15 360 4.8 16.1 0.00 1.80 0.00 53 1012.5
20260508010048 16 360 0.0 1.6 0.00 1.80 0.00 56 1012.3
20260508004534 16 360 0.0 4.8 0.00 1.80 0.00 57 1011.9
20260508003031 16 360 3.2 6.4 0.00 2.29 0.00 57 1011.4
20260508001530 16 360 3.2 12.9 0.00 2.29 0.00 56 1011.2
20260508000026 16 360 6.4 17.7 0.00 2.29 0.00 56 1010.8
20260507234521 17 360 4.8 12.9 0.00 2.29 0.00 56 1010.7
20260507233020 17 360 8.0 19.3 0.00 2.34 0.00 57 1010.3
20260507231518 17 360 12.9 22.5 0.00 2.34 0.00 57 1010.2
20260507230023 17 360 12.9 19.3 0.00 2.34 0.00 57 1010.0
20260507224514 17 360 14.5 25.7 0.00 2.34 0.00 57 1009.4
20260507223007 18 360 16.1 27.4 0.00 2.34 0.00 57 1009.0
20260507221503 19 360 14.5 25.7 0.00 2.34 0.00 56 1008.7
20260507220059 22 360 22.5 35.4 0.00 2.34 0.00 52 1008.4
20260507214555 24 227 6.4 14.5 0.00 2.34 0.00 45 1007.6
20260507213052 25 239 8.0 19.3 0.00 2.34 0.00 43 1007.5
20260507211555 25 217 6.4 19.3 0.00 2.34 0.00 41 1007.3
20260507210056 24 244 8.0 22.5 0.00 2.34 0.00 42 1007.2
20260507204550 25 178 9.7 19.3 0.00 2.34 0.00 40 1007.2
20260507203047 24 229 11.3 19.3 0.00 2.34 0.00 40 1007.2
20260507201543 24 237 6.4 16.1 0.00 2.34 0.00 39 1007.4
20260507200041 25 197 6.4 12.9 0.00 2.34 0.00 39 1007.3
20260507194538 25 291 4.8 17.7 0.00 2.34 0.00 31 1007.5
20260507193035 24 237 9.7 19.3 0.00 2.34 2.34 29 1007.7
20260507191529 24 234 6.4 19.3 0.00 2.34 2.34 27 1007.8
20260507190026 23 206 9.7 20.9 0.00 2.34 2.34 27 1008.2
20260507184626 23 217 4.8 14.5 0.00 2.34 2.34 30 1008.4
20260507183053 22 242 4.8 14.5 0.00 2.34 2.34 29 1008.4
20260507181553 22 237 6.4 17.7 0.00 2.34 2.34 30 1008.5
20260507180057 22 232 6.4 16.1 0.00 2.34 2.34 31 1008.4
20260507174602 21 254 6.4 14.5 0.00 2.34 2.34 33 1008.5
20260507173049 21 202 4.8 14.5 0.00 2.69 2.34 36 1008.9
20260507171600 21 360 6.4 12.9 0.00 2.69 2.34 39 1009.3
20260507170016 20 360 4.8 9.7 0.00 2.69 2.34 44 1009.2